Location: Detroit
(42.3310°N, 83.0460°W)
Time: 19:23:45
(UTC-04:00)

A-11 Canister half - Pass Details

Date: 12 February 2023
Orbit: 1526 x 1682 km, 47.3° (Epoch: 29 March)

Event Time Altitude Azimuth Distance (km) Brightness Sun altitude
Rises 08:43:13 0° 292° (WNW) 4,680 10.9 11.0°
Reaches altitude 10° 08:46:15 10° 293° (WNW) 3,700 10.4 11.5°
Maximum altitude 08:55:37 87° 23° (NNE) 1,553 9.3 13.0°
Drops below altitude 10° 09:05:12 10° 114° (ESE) 3,778 13.4 14.5°
Sets 09:08:19 0° 115° (ESE) 4,782 13.3 15.0°
